RH
30 32 34 36 34 37 46 47 53 56 58 58 56 54 54 55 53 55 61 61 65 66 71 68 66 68 72 71 71 70 70 72 81 83 83 79 70 68 67 64 63 61 53
32 35 39 43 44 42 48 50 54 58 59 62 64 67 62 61 63 64 63 64 68 72 73 73 73 72 76 74 72 71 72 68 72 74 71 76 63 63 61 62 62 60 59
25 24 31 38 44 47 54 55 59 62 64 68 66 63 58 57 55 60 63 66 67 68 74 78 75 75 75 76 76 75 75 71 69 73 72 68 68 56 54 63 59 59 62
23 24 27 30 35 46 58 58 58 59 58 65 63 63 58 53 56 57 58 56 55 59 66 72 73 73 74 74 74 74 73 73 69 66 64 69 65 66 66 54 54 54 54
27 28 31 36 43 50 49 46 45 46 49 48 49 50 50 48 47 46 48 46 47 52 56 62 68 70 71 72 74 76 75 72 70 66 65 64 70 68 66 71 57 52 53
30 33 36 38 43 48 47 45 45 44 46 48 47 49 51 51 49 50 47 48 46 48 51 55 58 61 63 67 72 73 75 75 72 68 67 65 65 66 66 63 60 58 53
32 35 37 41 43 46 44 38 42 45 43 45 46 45 48 46 46 47 49 50 48 48 51 55 56 57 57 60 65 69 72 72 72 72 69 65 63 66 69 64 66 63 58
35 38 41 43 41 42 41 38 41 44 45 44 45 42 45 45 44 45 46 46 47 49 52 54 57 57 57 58 60 63 66 68 70 72 73 72 69 65 66 67 69 76 66
34 36 39 41 41 40 44 44 43 43 44 47 44 42 45 47 46 47 47 47 49 48 50 54 55 55 56 58 59 62 62 65 68 71 72 72 71 68 69 71 72 82 82
33 34 36 38 41 42 46 44 44 42 42 45 44 43 48 48 49 48 48 49 50 52 51 52 53 54 55 55 58 61 63 64 67 71 72 71 71 70 70 74 79 81 86
32 30 30 31 36 43 45 43 41 42 42 44 43 45 48 51 50 50 49 50 53 51 50 49 49 50 52 54 56 58 60 63 65 67 70 72 70 71 72 69 75 74 81
31 31 32 31 33 36 35 34 39 40 43 46 45 46 46 46 48 49 49 51 51 49 47 46 46 48 50 54 58 61 59 60 65 72 71 70 71 71 73 70 70 74 80
34 34 32 32 32 30 28 32 35 39 41 44 46 45 45 44 42 44 48 50 54 54 51 48 45 45 47 55 59 62 62 62 61 62 70 78 76 73 68 73 78 77 76
39 36 35 33 31 30 32 33 35 36 36 39 41 46 45 45 44 41 42 41 44 50 52 49 48 49 50 50 57 62 67 73 72 70 69 74 80 81 80 77 78 76 82
42 39 37 36 37 38 38 38 35 34 34 34 38 40 42 44 46 43 39 40 42 44 46 46 46 48 51 51 51 70 79 84 82 77 74 71 72 78 82 88 90 81 87
43 36 32 32 40 51 51 46 43 38 36 36 38 39 40 41 39 34 35 38 40 43 44 45 48 51 55 51 56 76 84 80 87 87 79 75 73 73 78 84 86 85 99
37 29 24 22 21 22 23 29 36 40 38 41 41 40 40 40 36 33 33 36 38 40 41 43 46 47 50 54 60 71 81 77 81 88 86 79 76 75 77 80 84 88 88
25 22 22 25 26 27 31 36 38 41 42 42 40 43 42 39 35 30 31 32 34 35 38 41 45 48 50 51 54 59 73 72 72 78 85 92 90 84 87 83 83 86 91
27 29 29 30 32 32 32 32 38 40 42 37 34 32 29 28 28 29 32 34 35 37 41 43 44 45 45 45 46 50 64 67 68 72 76 77 81 83 86 92 98 95 94
36 39 41 41 42 42 42 41 40 41 43 32 27 30 34 37 38 39 41 42 41 40 39 40 40 38 37 37 38 44 60 63 65 65 67 72 74 80 80 96 99 97 93
42 39 40 41 40 44 46 49 51 42 32 33 36 39 40 41 41 43 44 43 41 37 35 33 32 33 35 36 37 41 56 59 62 64 68 69 76 73 74 87 99 99 96
34 34 36 36 36 39 44 44 41 38 37 37 37 38 39 38 37 41 45 47 47 44 41 38 35 34 35 35 36 41 48 58 65 72 72 72 74 71 82 90 94 97 93
25 24 25 26 28 33 34 34 36 35 35 34 35 33 32 31 32 35 40 45 46 44 42 38 35 34 34 37 39 44 48 53 65 70 71 72 74 83 90 92 90 93 100
23 22 25 26 27 29 30 32 29 30 31 30 30 33 36 35 34 34 36 38 40 40 41 38 36 35 36 38 42 47 51 53 57 63 71 76 78 81 87 88 87 97 99
27 26 27 30 31 32 32 34 36 36 35 33 33 34 36 36 36 36 36 37 38 39 39 39 39 41 44 46 48 57 68 74 75 72 79 84 80 78 82 81 82 96 100
28 30 31 32 34 34 35 35 35 36 37 37 40 42 43 43 44 45 45 45 48 51 53 57 61 61 62 66 71 76 78 80 75 87 98 83 79 80 86 92 90 93 100
Wind_Speed
4 3 3 2 2 3 3 4 5 7 7 7 7 8 8 9 9 9 9 9 9 9 10 11 10 9 9 9 10 9 7 8 7 6 10 20 23 23 22 20 18 16 18
5 4 4 4 4 4 4 3 4 5 6 6 6 7 8 7 9 10 10 10 9 9 9 9 10 10 11 11 7 7 9 8 1 5 8 3 10 14 10 10 11 11 13
4 3 3 4 4 4 4 4 4 5 5 6 6 7 8 8 8 9 11 10 11 10 10 11 11 10 9 10 12 10 9 11 9 5 5 2 2 5 3 4 6 5 7
4 4 4 6 6 5 4 4 5 6 7 7 7 8 8 10 10 11 11 13 11 11 10 9 10 12 12 11 10 9 9 10 11 11 8 10 12 3 3 4 7 11 10
4 5 7 7 7 7 7 7 7 8 9 9 9 8 8 9 10 11 13 12 11 11 10 9 9 9 11 12 12 12 11 10 12 10 11 9 11 14 6 8 7 7 9
5 6 5 5 6 6 6 6 6 7 8 8 8 9 9 10 10 12 12 14 14 13 12 13 11 10 10 11 13 13 12 12 12 13 13 12 9 10 9 6 8 8 12
5 4 4 4 4 4 4 4 5 7 7 7 7 8 8 8 9 10 11 13 13 13 14 16 15 15 14 13 13 15 17 16 15 14 14 14 15 15 17 14 11 8 14
3 3 2 2 2 3 4 3 4 5 6 6 7 7 8 9 10 11 12 13 14 15 17 17 18 17 16 15 14 15 16 17 18 18 17 17 17 16 16 15 12 7 8
4 3 2 2 3 2 1 3 4 4 5 6 7 7 7 8 10 11 11 12 13 14 16 17 18 19 19 18 17 17 16 17 19 20 20 20 19 18 17 18 14 9 8
3 2 4 6 6 5 3 2 2 4 6 8 9 10 10 11 12 13 14 14 15 16 17 17 18 19 19 18 18 18 18 18 18 19 21 22 20 19 20 19 16 17 18
5 7 8 9 7 6 5 4 4 5 6 8 10 12 13 14 13 14 14 15 16 16 16 16 18 19 20 20 20 19 21 20 20 20 21 23 23 21 20 19 19 20 19
11 12 14 12 8 8 7 5 5 7 8 10 12 13 15 15 15 15 16 16 18 17 17 17 17 17 18 19 21 22 21 21 21 22 21 23 23 24 23 23 23 22 21
14 12 10 8 9 9 8 8 8 10 11 12 14 16 19 19 18 18 18 18 18 18 18 18 18 18 18 19 20 22 23 22 23 22 22 23 23 24 24 23 23 23 23
9 8 7 6 8 9 12 13 14 14 14 15 16 18 19 20 21 22 20 19 19 19 18 19 21 21 19 19 19 20 20 22 23 24 24 23 23 24 23 24 24 24 22
8 8 8 12 15 18 20 20 20 20 20 20 19 20 21 20 21 20 20 21 19 19 19 20 20 21 20 19 18 17 20 22 24 25 25 24 25 25 27 26 22 22 22
10 11 13 16 16 21 22 24 25 26 25 24 22 23 22 21 21 21 20 20 21 20 20 21 21 22 22 20 22 18 18 21 23 26 25 25 25 25 27 29 32 35 28
13 16 17 23 25 28 29 28 24 24 26 23 24 23 22 20 22 22 21 22 23 22 22 23 22 22 24 24 22 21 20 21 21 24 25 25 23 24 23 24 27 30 31
18 20 23 25 28 30 29 26 26 26 24 24 24 22 21 21 22 22 23 22 21 21 21 22 23 23 24 24 23 23 20 22 21 21 23 24 26 25 24 24 25 25 25
24 26 28 29 30 30 31 31 28 29 24 25 24 22 21 21 22 23 23 23 22 22 23 23 24 24 25 24 24 24 21 22 23 21 21 22 24 24 25 26 25 25 26
26 26 29 29 29 30 30 28 27 28 21 24 22 20 22 23 24 24 24 24 23 25 25 26 25 25 27 27 25 21 20 22 23 23 23 21 22 24 24 24 23 23 23
23 24 24 23 25 26 25 24 25 20 23 21 22 23 25 25 25 25 25 25 25 25 26 27 28 27 26 26 26 23 20 21 22 22 24 23 20 23 24 23 24 23 25
23 25 23 24 25 24 24 22 22 24 24 23 24 26 27 27 26 25 27 26 25 25 26 27 27 26 25 24 24 23 22 23 23 26 26 26 24 24 26 27 27 27 28
23 26 26 27 28 27 26 25 25 25 25 25 27 27 28 28 27 26 27 26 24 23 25 24 23 23 22 21 24 24 23 24 24 25 26 29 32 30 28 23 24 27 25
25 28 28 28 28 29 30 29 29 27 27 27 27 28 28 28 28 26 26 25 25 23 24 23 23 23 22 21 24 22 20 20 19 21 23 26 28 28 28 26 24 25 24
29 30 28 28 28 31 32 32 30 30 28 28 28 27 26 27 28 28 27 27 29 27 25 25 25 23 23 26 25 25 25 26 28 31 29 26 25 24 22 22 23 24 24
30 30 31 31 31 30 30 31 31 29 28 27 26 25 27 27 25 25 27 30 31 33 35 35 36 35 34 35 33 32 31 29 30 27 22 23 23 23 22 18 20 22 23
Wind_Direction
124 110 92 71 44 39 38 20 14 7 9 2 351 340 340 331 327 329 325 327 327 329 323 318 315 313 312 316 309 310 278 246 215 275 240 228 241 242 246 251 255 257 255
143 118 109 86 71 63 46 26 18 13 15 3 344 332 326 320 315 316 323 325 323 317 314 310 310 312 314 314 306 311 312 305 301 276 278 249 185 200 234 231 240 248 251
140 114 113 83 60 40 30 25 21 18 12 353 340 336 324 313 317 325 322 323 322 320 315 311 308 304 302 304 319 322 321 317 315 292 292 262 319 354 206 230 255 262 245
127 104 88 64 45 38 38 33 32 24 12 6 355 344 332 327 326 321 320 321 322 321 319 314 311 310 309 303 302 302 303 299 304 313 298 300 299 297 310 306 299 279 270
115 98 82 72 61 61 61 58 55 49 41 36 28 14 0 346 338 337 333 335 333 330 328 325 314 305 301 297 295 293 288 283 287 291 302 295 299 289 269 285 288 299 289
113 98 93 88 73 68 62 56 54 47 39 36 29 22 8 355 350 348 344 341 337 336 337 333 328 316 304 297 294 286 272 261 270 276 276 275 269 279 302 284 289 279 292
128 122 107 86 70 65 57 43 43 47 36 30 27 18 3 350 345 345 337 334 332 332 330 333 330 324 318 307 294 288 284 276 262 252 257 264 263 253 259 276 282 285 288
122 108 96 100 79 54 43 32 33 41 27 16 3 357 353 345 339 336 330 326 326 324 324 324 323 320 317 311 304 292 283 278 273 268 257 257 259 266 266 266 281 290 278
162 162 175 200 211 188 87 15 3 359 350 346 341 336 339 337 328 324 321 317 317 317 319 320 319 318 317 315 311 301 290 283 278 270 265 260 259 257 260 268 259 258 277
36 291 247 234 227 217 210 248 312 324 331 335 333 329 327 327 324 321 318 316 315 318 318 319 318 317 314 310 307 302 297 291 281 275 270 263 257 254 253 248 246 255 257
332 318 280 259 248 238 239 267 292 310 318 325 324 322 321 320 316 313 311 310 310 311 311 312 314 314 313 312 308 302 298 293 289 279 274 271 266 260 261 256 242 249 251
306 311 294 283 255 247 248 262 288 304 313 316 315 312 309 308 305 304 304 304 303 304 305 306 305 306 307 309 306 301 298 295 290 289 286 276 268 261 259 256 253 249 246
323 315 296 267 257 261 271 284 295 298 302 302 306 310 308 305 303 302 299 298 295 298 301 302 300 301 302 302 301 300 299 295 293 289 281 280 279 272 261 253 247 247 250
330 334 321 292 272 277 281 288 293 297 298 302 298 294 296 300 301 302 298 294 293 294 295 296 297 296 297 295 295 296 299 300 295 293 290 283 275 276 274 264 254 249 244
317 319 313 309 299 299 294 287 286 290 294 291 289 291 294 293 293 293 294 292 290 292 294 294 293 293 293 293 295 295 297 298 296 292 288 284 279 275 273 275 277 259 240
314 319 313 305 299 288 288 287 287 284 289 290 290 292 293 291 290 289 287 287 289 291 290 287 287 287 287 287 290 291 293 297 293 291 289 287 286 283 278 277 272 266 268
310 309 310 307 307 305 301 287 286 293 290 288 287 287 286 284 285 287 288 287 288 288 286 284 284 284 284 287 287 283 281 290 288 289 288 289 287 287 285 279 276 272 266
317 311 306 306 302 299 297 300 299 293 291 287 285 285 284 284 286 287 284 285 286 286 286 286 285 285 285 288 289 289 282 284 281 283 286 288 290 287 293 290 281 278 273
308 305 304 302 303 301 299 293 290 289 289 290 287 289 290 286 285 282 283 286 286 284 281 280 282 283 285 289 291 292 285 281 282 280 278 283 285 285 288 288 285 279 273
306 306 306 307 306 303 301 300 294 290 290 289 296 295 289 283 280 280 282 282 281 279 279 279 277 280 283 287 290 291 283 282 284 286 281 279 282 288 289 289 284 280 275
308 309 307 301 304 309 306 298 294 290 287 291 289 284 283 282 279 277 277 277 278 279 278 278 280 278 278 281 284 285 276 275 282 287 288 285 282 287 291 291 290 280 281
308 308 305 302 303 301 299 291 285 282 286 291 284 282 283 283 280 275 275 275 274 277 277 275 274 273 273 277 281 283 278 274 273 279 285 286 286 288 290 288 285 280 277
298 300 295 297 296 292 289 285 283 283 284 284 282 283 282 279 278 274 271 272 271 269 272 271 270 270 271 274 279 284 282 279 269 270 276 283 288 288 288 286 286 284 277
295 298 297 294 292 293 291 286 287 288 288 284 282 279 279 281 282 279 275 271 269 265 262 264 266 268 269 273 279 285 286 285 282 281 283 286 287 285 283 282 286 278 271
293 293 292 290 290 290 289 286 288 290 288 289 287 283 280 277 275 274 273 271 269 269 271 272 275 274 272 271 277 283 286 285 283 285 285 283 282 280 279 276 278 276 268
295 294 291 289 288 289 290 287 285 289 290 289 285 279 279 280 278 277 278 274 272 273 272 269 264 266 268 273 278 282 285 285 284 282 273 277 275 273 273 269 276 272 262